Flag for United Kingdom Weather past 2 weeks in Bournemouth, England, United Kingdom

Now
55 °F

Passing clouds.


Feels Like: 54 °F
Forecast: N/A
Wind: 7 mph from Southwest

Location: Bournemouth Airport

Current Time: Oct 26, 2014 at 1:11:06 AM

Latest Report: Oct 25, 2014 at 11:20 PM


Visibility: N/A

Pressure: 30.18 "Hg

Humidity: 72%

Dew point: 46 °F

Location of BournemouthLocation

Historic Weather in Bournemouth — Graph

°F

Bournemouth temperature yesterday

Maximum temperature yesterday: 59 °F (at 1:20 PM)
Minimum temperature yesterday: 41 °F (at 12:50 AM)
Average temperature yesterday: 52 °F

Past Weeks' High & Low Weather Summary

 TemperatureHumidityPressure
High66 °F (Oct 18, 2:20 PM)100% (Oct 11, 12:50 AM)30.33 "Hg (Oct 11, 12:50 AM)
Low37 °F (Oct 22, 5:50 AM)55% (Oct 21, 1:20 PM)29.45 "Hg (Oct 13, 4:50 AM)
Average55 °F88%29.86 "Hg
* Reported Oct 10 11:20 PM — Oct 25 11:20 PM, Bournemouth, Weather by CustomWeather, © 2014

Note: Actual official high and low records may vary slightly from our data, if they occured in-between our weather recording intervals... More about our weather records

Advertising

Bournemouth weather history for previous 24 hours

 ConditionsComfort  
Time TempWeatherWind HumidityBarometerVisibility
11:20 PM
Oct 25
55 °FPassing clouds.7 mph72%30.18 "HgN/A
10:50 PM55 °FPassing clouds.7 mph72%30.18 "HgN/A
10:20 PM55 °FPassing clouds.7 mph72%30.15 "HgN/A
9:50 PM55 °FPassing clouds.7 mph72%30.15 "HgN/A
9:20 PM55 °FPassing clouds.7 mph77%30.15 "HgN/A
8:50 PM55 °FPassing clouds.7 mph77%30.15 "HgN/A
8:20 PM55 °FPassing clouds.6 mph82%30.15 "HgN/A
7:20 PM55 °FPassing clouds.7 mph82%30.12 "HgN/A
6:50 PM55 °FPartly sunny.7 mph82%30.12 "HgN/A
6:20 PM54 °FPartly sunny.5 mph88%30.12 "HgN/A
5:50 PM55 °FScattered clouds.7 mph82%30.12 "HgN/A
5:20 PM57 °FPartly sunny.9 mph77%30.09 "HgN/A
4:50 PM57 °FScattered clouds.9 mph72%30.09 "HgN/A
4:20 PM57 °FPartly sunny.12 mph72%30.09 "HgN/A
3:50 PM57 °FScattered clouds.13 mph72%30.09 "HgN/A
3:20 PM57 °FScattered clouds.10 mph67%30.09 "HgN/A
2:50 PM57 °FPartly sunny.12 mph72%30.09 "HgN/A
2:20 PM57 °FPartly sunny.13 mph72%30.09 "HgN/A
1:50 PM59 °FPartly sunny.13 mph63%30.09 "HgN/A
1:20 PM59 °FBroken clouds.12 mph63%30.09 "HgN/A
12:20 PM57 °FPartly sunny.9 mph67%30.09 "HgN/A
11:50 AM57 °FPartly sunny.12 mph72%30.09 "HgN/A
11:20 AM57 °FScattered clouds.8 mph72%30.09 "HgN/A
10:50 AM55 °FPartly sunny.6 mph77%30.09 "HgN/A
10:20 AM55 °FPartly sunny.3 mph77%30.09 "HgN/A
9:50 AM54 °FClear.3 mph82%30.09 "HgN/A
9:20 AM52 °FBroken clouds.3 mph88%30.09 "HgN/A
8:20 AM50 °FPassing clouds.1 mph94%30.07 "HgN/A
7:50 AM50 °FOvercast.1 mph94%30.07 "HgN/A
7:20 AM50 °FOvercast.2 mph88%30.04 "HgN/A
6:50 AM50 °FOvercast.3 mph88%30.04 "HgN/A
6:20 AM50 °FOvercast.5 mph88%30.04 "HgN/A
5:50 AM50 °FOvercast.5 mph88%30.04 "HgN/A
5:20 AM50 °FOvercast.5 mph94%30.04 "HgN/A
4:50 AM50 °FOvercast.5 mph94%30.04 "HgN/A
4:20 AM50 °FOvercast.5 mph94%30.04 "HgN/A
3:50 AM46 °FOvercast.2 mph100%30.04 "HgN/A
3:20 AM46 °FOvercast.2 mph100%30.04 "HgN/A
2:50 AM45 °FPassing clouds.2 mph100%30.04 "HgN/A
2:20 AM43 °FPassing clouds.2 mph100%30.04 "HgN/A
1:50 AM41 °FFog.2 mph100%30.04 "Hg4 mi
1:20 AM41 °FFog.1 mph100%30.04 "Hg1 mi
Weather by CustomWeather, © 2014

See weather overviewHow to use our weather pages